Date,TemperatureHighF,TemperatureAvgF,TemperatureLowF,DewpointHighF,DewpointAvgF,DewpointLowF,HumidityHigh,HumidityAvg,HumidityLow,PressureMaxIn,PressureMinIn,WindSpeedMaxMPH,WindSpeedAvgMPH,GustSpeedMaxMPH,PrecipitationSumIn
2013-1-1,51.6,32.0,19.4,12.8,-2.7,-10.9,71,29,11,30.27,30.21,13,4,17,0.00
2013-1-2,55.9,39.8,30.9,0.2,-6.6,-11.3,15,13,10,30.24,30.18,11,5,17,0.00
2013-1-3,57.2,41.3,31.6,5.1,-5.5,-10.7,15,13,10,30.30,30.18,14,6,17,0.00
2013-1-4,65.5,39.7,22.8,8.6,-6.0,-15.4,17,14,10,30.36,30.30,11,3,11,0.00
2013-1-5,68.9,38.1,20.1,10.1,-6.7,-17.7,21,15,10,30.39,30.27,8,2,10,0.00
2013-1-6,44.6,33.5,27.3,24.5,10.2,-12.9,73,43,14,30.27,30.09,12,2,12,0.00
2013-1-7,51.6,37.4,26.4,23.1,3.8,-9.1,73,30,11,30.21,30.03,15,6,23,0.00
2013-1-8,72.0,46.6,25.0,11.5,3.9,-9.1,38,19,9,30.33,30.18,9,3,13,0.00
2013-1-9,68.7,47.4,38.3,16.1,7.4,-0.2,37,21,10,30.33,30.15,10,2,52,0.00
2013-1-10,42.4,35.4,21.0,29.7,21.2,6.6,73,59,28,30.15,29.94,17,5,24,0.00
2013-1-11,47.7,26.5,11.8,11.0,1.4,-12.6,70,40,12,30.15,30.06,13,3,15,0.00
2013-1-12,50.7,25.3,9.0,10.6,-2.2,-12.7,68,37,11,30.15,30.03,9,2,13,0.00
2013-1-13,49.8,26.4,12.0,-1.9,-8.1,-18.1,48,24,11,30.18,30.06,10,3,12,0.00
2013-1-14,42.1,25.5,12.0,-5.2,-14.1,-22.3,19,16,13,30.33,30.15,13,5,17,0.00
2013-1-15,49.5,35.3,24.8,-2.7,-8.7,-14.3,17,14,11,30.45,30.30,17,8,20,0.00
2013-1-16,59.5,45.7,35.8,6.9,-2.3,-8.7,14,13,11,30.42,30.33,17,7,22,0.00
2013-1-17,65.8,48.8,41.0,7.8,-0.5,-6.1,16,13,10,30.39,30.30,12,6,21,0.00
2013-1-18,71.2,48.8,38.5,10.3,-0.4,-7.5,16,13,9,30.36,30.30,8,3,13,0.00
2013-1-19,72.0,49.1,37.9,10.5,-1.0,-7.5,16,12,9,30.39,30.30,7,2,10,0.00
2013-1-20,74.5,48.6,34.3,10.7,-1.4,-8.9,15,12,8,30.36,30.27,7,2,10,0.00
2013-1-21,74.1,50.5,37.8,10.7,-0.5,-7.2,14,12,8,30.36,30.27,9,4,12,0.00
2013-1-22,77.9,51.4,34.5,11.9,0.0,-8.9,17,12,8,30.33,30.30,8,2,14,0.00
2013-1-23,66.0,51.7,36.7,18.5,4.8,-8.0,28,15,10,30.36,30.30,10,2,13,0.00
2013-1-24,56.3,47.2,43.5,38.4,31.0,18.9,69,54,29,30.36,30.27,6,1,12,0.16
2013-1-25,50.4,46.9,43.7,46.2,37.5,33.8,100,70,61,30.36,30.15,6,2,10,0.71
2013-1-26,55.0,47.1,44.6,50.6,46.5,44.6,100,98,83,30.15,30.09,10,2,10,0.35
2013-1-27,52.0,40.8,30.4,44.4,38.3,30.2,100,92,58,30.15,30.03,13,5,17,0.00
2013-1-28,48.2,30.8,21.2,31.5,25.8,21.1,100,84,44,30.21,30.06,8,2,13,0.08
2013-1-29,57.0,36.1,19.4,36.6,27.7,19.0,100,76,42,30.33,30.18,15,3,15,0.00
2013-1-30,69.4,48.0,37.0,44.1,30.6,25.0,69,52,40,30.42,30.33,13,4,20,0.00
2013-1-31,69.8,50.1,39.4,43.8,31.2,25.4,60,49,39,30.39,30.33,9,4,15,0.00
2013-2-1,75.2,48.8,28.8,47.9,31.1,21.2,75,52,38,30.39,30.33,6,2,12,0.00
2013-2-2,69.3,51.5,40.6,43.9,33.6,26.6,93,52,40,30.42,30.33,6,2,10,0.00
2013-2-3,59.7,45.4,33.1,48.3,39.9,33.1,100,84,47,30.33,30.21,6,1,10,0.08
2013-2-4,72.3,46.7,29.5,46.0,34.5,27.1,100,67,39,30.27,30.18,10,2,11,0.00
2013-2-5,72.9,45.7,27.9,46.5,32.5,22.3,97,64,39,30.24,30.15,8,2,13,0.00
2013-2-6,69.6,43.9,26.4,44.2,31.3,22.4,100,66,40,30.24,30.09,10,2,16,0.00
2013-2-7,70.7,42.6,24.4,44.5,31.9,21.1,100,71,39,30.24,30.06,10,3,14,0.00
2013-2-8,34.0,29.9,26.1,33.5,29.2,25.1,100,97,86,30.06,29.91,13,6,22,0.00
2013-2-9,41.7,28.9,17.4,29.7,25.2,14.0,100,86,61,30.12,29.94,6,2,10,0.00
2013-2-10,47.8,27.9,15.1,32.0,24.1,14.5,100,87,47,30.12,30.06,9,2,9,0.04
2013-2-11,45.1,30.7,21.6,25.1,18.4,6.8,100,64,42,30.27,30.09,10,4,15,0.04
2013-2-12,61.2,39.2,21.4,37.4,20.0,6.5,63,46,41,30.36,30.24,9,4,13,0.16
2013-2-13,69.8,44.0,25.9,45.7,24.8,11.4,67,47,40,30.33,30.27,10,3,14,0.00
2013-2-14,62.8,48.1,35.2,40.2,28.2,18.5,50,46,43,30.36,30.27,12,5,17,0.00
2013-2-15,67.5,50.3,41.0,43.6,30.4,21.8,48,46,42,30.42,30.30,17,8,26,0.00
2013-2-16,74.7,48.0,26.4,50.7,28.5,9.7,49,46,43,30.39,30.21,9,2,13,0.00
2013-2-17,65.8,41.4,24.1,43.9,25.9,9.2,96,56,44,30.18,30.09,9,2,15,0.00
2013-2-18,66.6,39.1,22.8,41.5,28.0,17.7,100,70,40,30.18,30.06,10,2,15,0.00
2013-2-19,38.7,31.7,22.3,34.3,30.5,21.8,100,96,77,30.06,29.80,10,3,17,0.04
2013-2-20,40.3,28.9,23.9,29.8,25.6,21.7,100,88,63,30.06,29.74,0,0,0,0.00
2013-2-21,50.5,29.2,13.3,30.5,20.9,10.2,100,73,46,30.15,30.03,6,1,10,0.24
2013-2-22,64.0,35.2,16.9,41.1,22.8,11.1,100,64,42,30.27,30.15,6,1,9,0.08
2013-2-23,59.2,37.8,21.2,36.1,26.1,18.2,100,67,42,30.27,30.06,10,3,21,0.00
2013-2-24,48.7,36.3,25.9,27.8,17.9,8.0,50,47,44,30.30,30.09,22,9,27,0.00
2013-2-25,65.3,39.9,23.4,40.4,21.4,7.0,64,48,40,30.30,30.18,9,3,13,0.00
2013-2-26,61.7,41.2,22.6,39.6,23.2,10.1,66,49,42,30.27,30.12,15,4,17,0.00
2013-2-27,61.9,44.0,33.3,39.8,24.5,15.7,48,46,44,30.42,30.27,12,5,17,0.00
2013-2-28,67.3,48.6,36.7,43.4,28.6,18.4,48,46,42,30.47,30.39,13,5,15,0.00
2013-3-1,74.8,54.4,41.4,50.9,33.7,23.2,48,45,42,30.47,30.42,14,5,17,0.00
2013-3-2,80.1,54.0,38.1,54.9,33.6,20.2,49,46,42,30.45,30.30,10,3,17,0.00
2013-3-3,68.7,50.7,38.1,46.5,31.2,19.8,59,47,43,30.30,30.12,15,4,19,0.00
2013-3-4,67.3,47.0,33.4,42.2,33.5,25.5,100,62,40,30.27,30.12,11,3,13,0.00
2013-3-5,69.3,46.5,31.1,43.9,32.5,24.1,100,61,40,30.27,30.18,12,4,15,0.00
2013-3-6,62.4,43.4,31.3,40.2,34.2,29.5,100,74,41,30.21,30.12,10,4,15,0.00
2013-3-7,49.6,36.5,27.0,41.0,34.1,26.6,100,92,59,30.12,30.00,8,4,14,0.00
2013-3-8,35.6,32.2,29.8,32.7,30.3,26.4,100,93,71,30.09,29.88,15,3,15,0.04
2013-3-9,53.1,37.0,31.3,38.7,33.3,31.3,100,88,53,30.27,30.06,8,3,11,0.51
2013-3-10,72.3,47.1,30.6,46.0,27.3,18.2,71,46,39,30.36,30.27,11,5,24,0.04
2013-3-11,78.6,52.4,36.1,52.3,32.5,18.1,78,47,40,30.36,30.27,8,3,11,0.00
2013-3-12,79.3,55.4,36.3,53.0,34.8,19.2,69,46,40,30.27,25.34,10,3,15,0.00
2013-3-13,86.4,61.0,41.7,58.6,38.3,26.0,58,43,38,25.45,25.37,8,3,13,0.00
2013-3-14,91.0,62.1,43.9,63.4,40.6,26.5,71,46,40,25.43,25.37,10,3,12,0.00
2013-3-15,85.3,59.2,40.5,56.8,39.9,30.2,75,51,38,25.40,25.25,10,2,15,0.00
2013-3-16,81.0,56.8,38.5,53.7,36.8,24.3,81,48,39,25.25,25.16,8,2,15,0.00
2013-3-17,75.7,51.9,34.9,49.8,37.3,25.4,99,61,40,25.22,25.16,9,3,13,0.00
2013-3-18,74.1,50.9,31.3,50.2,36.3,20.0,100,60,42,25.28,25.16,10,2,14,0.00
2013-3-19,75.9,52.1,33.4,49.9,39.0,29.9,99,66,40,25.34,25.22,15,2,17,0.00
2013-3-20,73.2,51.2,36.3,48.1,38.5,31.4,99,65,41,25.31,25.16,11,2,17,0.00
2013-3-21,73.9,53.3,40.6,50.1,39.3,29.0,98,62,43,25.16,25.04,13,3,13,0.00
2013-3-22,76.5,50.6,30.6,50.4,39.2,30.1,100,72,39,25.13,25.01,14,3,23,0.00
2013-3-23,73.6,50.0,29.7,46.8,32.2,17.4,100,54,38,25.22,25.10,10,3,13,0.00
2013-3-24,75.0,49.1,28.9,51.0,32.4,18.4,83,54,43,25.22,25.16,10,2,13,0.00
2013-3-25,77.7,51.4,30.4,54.7,34.9,22.3,74,55,43,25.22,25.16,11,2,14,0.00
2013-3-26,73.9,50.4,32.7,51.9,33.9,23.0,75,54,43,25.19,25.13,9,2,14,0.00
2013-3-27,73.4,51.4,38.7,49.6,35.0,22.8,86,55,43,25.22,25.10,10,3,13,0.00
2013-3-28,75.7,52.7,34.3,51.7,37.4,26.0,84,58,40,25.25,25.16,8,3,14,0.00
2013-3-29,75.2,52.9,34.3,49.3,36.7,28.6,89,57,40,25.31,25.25,9,2,14,0.00
2013-3-30,76.8,55.8,39.9,52.7,39.2,31.1,81,55,40,25.28,25.25,9,3,14,0.00
2013-3-31,67.3,48.4,34.2,43.5,37.1,26.1,98,68,42,25.25,25.19,11,4,14,0.00
2013-4-1,69.1,46.9,35.4,45.0,37.0,33.6,100,73,42,25.22,25.16,10,3,15,0.00
2013-4-2,74.8,51.9,35.4,49.6,39.1,32.3,100,67,40,25.22,25.13,11,3,13,0.00
2013-4-3,82.9,54.9,33.8,53.4,37.9,27.1,97,57,36,25.28,25.19,9,2,14,0.00
2013-4-4,78.4,55.2,37.0,50.8,37.7,28.2,78,54,38,25.25,25.19,9,3,15,0.00
2013-4-5,76.3,53.8,42.4,50.2,39.4,30.6,99,61,40,25.19,25.10,11,4,14,0.00
2013-4-6,73.8,51.1,34.7,48.6,42.3,34.7,100,77,41,25.16,25.07,9,2,14,0.00
2013-4-7,74.7,53.5,33.4,49.4,42.7,33.2,100,73,40,25.10,24.92,9,2,13,0.00
2013-4-8,50.2,40.9,34.9,43.3,35.8,28.1,100,84,46,24.95,24.75,19,6,26,0.00
2013-4-9,70.9,45.4,31.3,46.7,30.7,18.5,97,59,42,25.07,24.86,10,3,14,0.00
2013-4-10,78.4,55.5,36.3,52.1,33.5,18.4,49,44,39,25.19,25.10,12,5,18,0.00
2013-4-11,77.0,52.3,32.5,52.8,33.6,17.1,72,50,42,25.13,24.92,9,3,16,0.00
2013-4-12,82.9,56.6,36.5,53.3,38.7,25.8,79,54,36,25.04,24.89,10,3,13,0.00
2013-4-13,77.7,56.7,39.2,51.5,37.9,25.7,78,51,39,25.01,24.95,8,2,16,0.00
2013-4-14,65.7,50.0,38.8,43.8,35.3,21.3,93,58,45,24.95,24.86,11,4,14,0.00
2013-4-15,54.3,43.8,37.4,41.2,38.2,34.9,100,82,56,24.92,24.83,8,4,14,0.00
2013-4-16,59.2,39.6,29.5,36.5,30.8,25.8,100,74,42,24.95,24.83,12,4,15,0.00
2013-4-17,67.5,42.7,23.0,42.3,28.3,19.4,100,62,40,30.05,24.92,10,4,16,0.00
2013-4-18,72.1,49.4,37.2,45.8,28.4,18.9,47,44,39,30.14,30.05,16,5,22,0.00
2013-4-19,81.5,57.2,40.3,52.7,34.5,21.2,48,42,37,30.14,30.02,10,4,15,0.00
2013-4-20,88.2,58.7,37.0,57.1,35.7,18.7,49,42,35,30.02,29.96,11,3,19,0.00
2013-4-21,88.2,60.0,40.5,59.4,37.3,23.0,56,44,36,30.05,29.99,10,2,13,0.00
2013-4-22,81.9,56.9,37.9,53.1,35.5,19.7,69,45,37,30.02,29.90,13,2,14,0.00
2013-4-23,85.6,57.4,35.4,55.7,38.0,23.0,71,50,36,29.96,29.84,11,3,18,0.00
2013-4-24,81.3,55.4,40.3,52.6,38.3,22.2,99,56,37,29.93,29.84,13,3,17,0.00
2013-4-25,68.0,49.8,39.0,44.1,39.2,35.5,97,70,42,30.05,29.87,9,3,13,0.00
2013-4-26,85.5,55.9,33.3,57.0,42.2,33.3,100,66,38,30.14,30.02,9,2,18,0.00
2013-4-27,90.5,61.3,39.0,60.0,40.2,25.5,70,47,35,30.14,30.05,8,2,16,0.00
2013-4-28,93.7,63.9,41.5,61.2,39.9,22.3,49,42,34,30.05,29.96,9,2,16,0.00
2013-4-29,91.6,64.6,44.1,59.3,41.0,24.3,59,43,34,29.96,29.87,8,2,13,0.00
2013-4-30,81.7,59.4,40.5,52.9,39.7,25.1,84,50,37,29.87,29.81,10,3,16,0.00
2013-5-1,81.7,61.1,37.0,52.9,40.0,28.2,79,48,37,30.11,29.84,17,5,22,0.00
2013-5-2,77.4,62.2,54.1,49.8,38.2,30.4,43,41,38,30.16,30.08,13,7,24,0.00
2013-5-3,87.1,63.2,46.2,56.9,38.4,24.4,44,40,36,30.08,29.90,9,3,15,0.00
2013-5-4,84.0,57.3,37.6,54.2,34.2,18.7,47,42,36,29.90,29.75,10,2,14,0.00
2013-5-5,66.7,50.5,42.4,43.5,33.8,21.5,88,54,42,29.87,29.75,8,3,13,0.00
2013-5-6,54.7,45.2,37.9,46.8,42.9,36.0,100,92,67,29.90,29.81,9,4,14,0.00
2013-5-7,59.2,45.4,38.8,42.6,39.3,34.8,100,81,47,29.93,29.84,10,4,14,0.00
2013-5-8,69.6,50.3,39.7,45.5,41.1,36.8,100,74,42,29.96,29.90,8,2,11,0.00
2013-5-9,74.8,52.9,40.1,51.7,43.3,38.0,100,74,41,29.99,29.93,8,3,13,0.08
2013-5-10,81.0,58.8,39.7,53.7,44.4,37.8,100,64,39,30.08,29.96,10,3,15,0.04
2013-5-11,90.3,64.5,43.9,62.7,44.7,33.1,79,51,38,30.14,30.05,12,2,15,0.00
2013-5-12,94.3,67.2,46.8,63.2,43.4,28.1,54,43,36,30.14,30.05,8,2,13,0.00
2013-5-13,95.9,69.1,48.4,64.7,44.5,28.9,49,42,36,30.08,30.02,8,2,13,0.00
2013-5-14,88.9,66.0,50.4,57.7,41.0,29.3,44,40,35,30.02,29.96,9,4,20,0.00
2013-5-15,81.7,60.8,42.4,53.5,38.8,23.1,69,45,37,29.99,29.93,9,3,14,0.00
2013-5-16,81.1,58.9,40.3,52.4,42.0,32.7,93,57,37,29.93,29.87,11,3,14,0.00
2013-5-17,74.3,57.1,45.9,49.1,41.7,34.1,99,58,41,29.93,29.81,10,3,14,0.00
2013-5-18,79.5,56.2,39.6,53.1,44.5,39.0,99,70,40,29.96,29.87,8,2,15,0.20
2013-5-19,88.9,61.0,36.1,57.7,46.0,35.6,100,64,35,29.93,29.90,11,2,15,0.00
2013-5-20,91.8,64.4,45.0,61.8,42.7,26.7,94,47,36,29.99,29.90,11,3,15,0.00
2013-5-21,86.7,63.1,41.0,58.1,41.3,26.0,59,46,38,29.99,29.87,10,2,13,0.00
2013-5-22,80.6,60.4,45.3,52.0,37.9,26.0,61,44,37,29.87,29.75,13,4,16,0.00
2013-5-23,75.2,54.4,37.9,54.5,36.9,22.5,91,52,44,29.84,29.72,10,3,15,0.00
2013-5-24,80.2,53.9,30.6,51.6,37.0,16.4,97,57,37,29.90,29.81,9,2,13,0.00
2013-5-25,78.1,54.4,31.8,50.4,36.1,19.5,81,52,38,29.93,29.84,14,3,17,0.00
2013-5-26,76.8,54.7,35.4,49.3,38.3,27.8,95,57,38,29.93,29.87,13,4,17,0.00
2013-5-27,81.0,59.6,41.7,53.8,41.5,29.9,91,53,39,29.90,29.84,10,3,15,0.00
2013-5-28,76.6,58.0,44.6,50.5,43.9,35.7,96,63,40,29.84,29.72,11,3,17,0.00
2013-5-29,90.1,56.1,41.0,60.4,44.7,36.1,100,71,37,29.78,29.72,8,2,13,0.00
2013-5-30,90.9,65.7,45.0,61.0,45.8,32.9,72,50,37,29.87,29.75,10,3,12,0.00
2013-5-31,94.3,67.2,44.2,65.5,47.0,33.9,74,50,37,29.90,29.81,13,2,17,0.00
2013-6-1,100.0,75.4,54.0,68.0,50.2,35.7,55,42,35,29.87,29.84,9,3,16,0.00
2013-6-2,93.4,69.4,51.1,60.9,45.2,31.9,56,43,34,29.84,29.72,9,2,17,0.00
2013-6-3,91.0,64.4,43.2,59.6,42.2,25.8,69,46,35,29.78,29.66,8,2,15,0.00
2013-6-4,89.4,63.0,40.6,61.9,42.1,22.5,75,48,38,29.81,29.72,9,2,13,0.00
2013-6-5,91.8,66.4,43.3,63.3,45.3,24.3,75,48,37,29.81,29.78,8,2,13,0.00
2013-6-6,94.5,68.1,46.6,63.4,47.0,27.6,78,49,36,29.78,29.69,9,2,14,0.00
2013-6-7,99.5,72.7,51.1,69.4,49.2,30.3,76,44,37,29.72,29.66,9,2,16,0.00
2013-6-8,99.0,70.5,54.7,70.4,47.6,33.8,65,45,38,29.72,29.63,10,2,15,0.00
2013-6-9,95.9,69.8,49.1,64.7,46.6,28.5,67,45,34,29.69,29.63,10,3,14,0.00
2013-6-10,87.6,66.4,45.7,57.4,41.5,26.0,50,41,36,29.66,29.60,15,4,22,0.00
2013-6-11,97.7,68.8,44.1,66.2,43.8,24.8,48,41,36,29.69,29.60,8,2,13,0.00
2013-6-12,92.5,69.2,50.9,62.4,44.4,29.8,46,41,36,29.66,29.60,10,3,17,0.00
2013-6-13,92.3,66.7,46.2,62.3,43.3,25.7,69,43,34,29.63,29.54,8,2,13,0.00
2013-6-14,91.4,64.8,39.9,59.5,42.2,21.5,76,46,34,29.54,29.49,8,2,13,0.00
2013-6-15,90.1,71.5,41.2,58.8,45.7,28.4,60,41,35,29.57,29.49,10,3,13,0.04
2013-6-16,91.2,63.0,37.2,59.8,40.1,17.3,70,44,35,29.57,29.52,10,2,13,0.00
2013-6-17,93.2,65.3,42.8,62.3,42.8,23.4,74,46,35,29.54,29.49,12,3,15,0.00
2013-6-18,88.0,61.8,42.3,59.2,40.5,26.0,68,47,36,29.49,29.40,9,3,15,0.00
2013-6-19,89.4,65.3,46.4,58.2,42.8,27.3,69,45,35,29.40,29.34,13,3,17,0.00
2013-6-20,90.1,64.0,43.5,59.4,42.3,23.6,73,47,35,29.43,29.31,10,3,14,0.00
2013-6-21,88.5,63.1,43.0,57.4,40.8,25.1,57,45,35,29.43,29.34,10,3,15,0.00
2013-6-22,89.8,64.5,44.8,58.5,43.0,28.5,66,47,35,29.43,29.34,8,3,14,0.00
2013-6-23,84.9,71.3,50.0,56.5,47.9,37.9,65,44,38,29.40,29.34,10,5,14,0.00
2013-6-24,77.4,61.8,47.5,51.2,44.0,32.4,93,54,39,29.43,29.31,12,3,13,0.00
2013-6-25,88.2,64.3,48.7,59.4,48.3,40.8,95,60,38,29.49,29.40,14,3,15,0.00
2013-6-26,97.7,80.0,53.2,67.8,56.1,45.7,80,45,38,29.57,29.49,7,3,13,0.00
2013-6-27,100.0,71.7,56.5,69.9,50.8,42.4,67,50,36,29.60,29.54,8,2,13,0.00
2013-6-28,101.8,80.4,55.9,69.1,54.7,37.0,55,42,35,29.57,29.52,8,3,13,0.00
2013-6-29,105.1,75.4,58.5,71.0,51.5,36.8,57,44,34,29.54,29.46,7,1,13,0.00
2013-6-30,106.2,85.8,63.1,72.0,57.5,40.3,46,39,34,29.49,29.43,10,3,16,0.00
2013-7-1,98.4,79.1,64.8,66.9,52.5,43.1,48,40,33,29.49,29.43,7,2,14,0.00
2013-7-2,102.0,77.3,58.5,69.2,50.9,39.4,49,40,35,29.54,29.46,9,2,12,0.00
2013-7-3,100.6,77.2,65.3,68.0,49.8,40.4,42,38,35,29.49,29.40,8,2,12,0.00
2013-7-4,100.0,77.1,60.1,66.4,49.3,37.0,44,38,33,29.40,29.34,9,2,13,0.00
2013-7-5,97.3,75.4,57.9,63.5,48.8,36.2,54,40,33,29.37,29.31,9,3,14,0.00
2013-7-6,97.2,74.2,57.9,67.3,52.8,42.7,65,48,38,29.34,29.28,8,2,12,0.00
2013-7-7,100.4,76.6,55.4,67.8,50.8,34.9,66,41,35,29.37,29.28,10,2,15,0.00
2013-7-8,103.1,72.8,52.2,69.4,47.0,32.0,46,40,34,29.46,29.34,9,2,11,0.00
2013-7-9,107.2,83.9,65.1,74.6,55.5,40.2,41,38,34,29.49,22.63,10,2,11,0.00
2013-7-10,94.3,75.2,62.4,63.2,52.1,44.8,83,46,36,22.63,22.63,12,3,13,0.00
2013-7-11,81.3,67.8,59.9,54.0,48.2,40.8,65,50,39,22.63,22.63,5,2,10,0.00
2013-7-12,93.4,69.5,56.8,62.5,50.9,44.6,75,54,36,22.63,22.63,12,2,12,0.00
2013-7-13,97.3,72.8,52.5,67.5,52.9,42.8,85,53,37,22.63,22.63,15,2,15,0.00
2013-7-14,99.1,79.1,60.6,70.6,54.4,40.6,49,43,39,22.63,22.63,8,2,13,0.00
2013-7-15,95.7,72.9,57.4,68.3,49.7,37.3,49,44,39,22.63,22.63,10,3,17,0.00
2013-7-16,95.2,70.8,53.2,69.8,48.1,33.0,48,45,41,22.63,22.63,8,2,13,0.00
2013-7-17,99.1,79.8,57.9,72.7,56.5,36.2,47,45,43,22.63,22.63,8,3,13,0.00
2013-7-18,99.9,72.8,51.6,73.4,50.0,31.5,47,45,42,22.63,22.63,9,2,13,0.00
2013-7-19,99.7,76.0,58.8,73.2,53.3,38.4,47,45,43,22.63,22.63,8,2,12,0.00
2013-7-20,94.5,72.7,63.9,63.4,57.5,48.3,84,60,36,22.63,22.63,8,2,13,0.00
2013-7-21,81.5,68.4,59.9,63.4,59.8,56.1,95,77,50,22.63,22.63,6,1,10,0.00
2013-7-22,80.6,64.6,58.8,65.1,59.4,55.2,96,85,50,22.63,22.63,4,1,7,0.00
2013-7-23,89.8,68.8,56.7,65.2,56.1,49.0,96,69,37,22.63,22.63,9,2,13,0.00
2013-7-24,96.3,72.7,57.7,67.3,53.0,45.7,77,52,37,22.63,22.63,8,2,13,0.00
2013-7-25,95.9,74.4,56.3,68.4,52.8,43.4,66,48,39,22.63,22.63,10,2,14,0.00
2013-7-26,89.6,72.2,60.6,62.1,52.4,45.2,71,51,40,22.63,22.63,4,1,11,0.00
2013-7-27,93.4,72.5,56.1,65.9,53.5,46.7,77,53,39,22.63,22.63,10,2,14,0.00
2013-7-28,91.8,69.1,52.7,63.5,49.2,32.8,78,51,39,22.63,22.63,8,3,14,0.00
2013-7-29,92.8,68.0,49.1,65.4,45.0,29.2,52,44,39,22.63,22.63,12,2,17,0.00
2013-7-30,93.0,69.8,53.2,64.4,48.5,37.8,57,47,39,22.63,22.63,8,2,14,0.00
2013-7-31,97.0,71.0,52.3,69.4,50.2,32.2,67,49,39,22.63,22.63,13,2,13,0.00
2013-8-1,95.9,68.1,48.6,70.5,46.1,28.7,49,45,38,22.63,22.63,9,2,17,0.00
2013-8-2,94.3,65.7,45.9,61.6,42.7,26.8,57,44,34,22.63,22.63,10,2,12,0.00
2013-8-3,96.3,68.9,47.8,63.4,45.4,29.1,58,44,34,22.63,22.63,9,2,12,0.00
2013-8-4,95.4,69.3,50.2,62.6,45.7,31.4,59,44,34,22.63,22.63,8,2,13,0.00
2013-8-5,94.5,68.3,47.8,61.8,44.0,29.1,54,42,34,22.63,22.63,10,2,14,0.00
2013-8-6,92.8,69.2,48.0,60.4,44.4,28.6,49,41,34,22.63,22.63,11,2,13,0.00
2013-8-7,93.4,67.9,47.7,60.8,43.3,29.5,49,42,34,22.63,22.63,10,3,15,0.00
2013-8-8,89.8,66.6,53.2,58.5,42.0,32.6,48,41,35,22.63,22.63,8,3,13,0.00
2013-8-9,93.6,65.5,46.0,61.0,41.2,28.5,50,42,34,22.63,22.63,8,2,13,0.00
2013-8-10,89.8,63.8,41.2,58.5,39.6,20.4,57,41,35,22.63,22.63,10,3,14,0.00
2013-8-11,94.8,65.3,45.7,62.1,43.2,27.6,67,46,34,22.63,22.63,10,2,13,0.00
2013-8-12,94.1,68.5,48.9,61.5,44.8,29.1,61,44,34,22.63,22.63,13,2,17,0.00
2013-8-13,99.5,71.1,50.9,65.3,45.9,30.9,51,41,33,22.63,22.63,9,2,15,0.00
2013-8-14,101.8,72.1,52.2,66.5,46.5,32.0,50,41,32,22.63,22.63,8,2,21,0.00
2013-8-15,100.6,75.2,57.2,65.6,49.0,37.0,49,41,32,22.63,22.63,14,2,19,0.00
2013-8-16,99.9,75.4,58.5,65.6,49.1,36.1,51,40,33,22.63,22.63,10,2,16,0.00
2013-8-17,103.6,76.1,56.3,68.0,50.6,37.9,55,42,32,22.63,22.63,15,2,16,0.00
2013-8-18,97.5,77.7,62.2,63.6,51.2,41.5,50,40,33,22.63,22.63,11,4,17,0.00
2013-8-19,93.7,76.0,62.1,61.2,51.0,43.2,51,42,34,22.63,22.63,11,3,13,0.00
2013-8-20,100.9,75.3,56.1,65.7,50.1,37.4,59,42,32,22.63,22.63,8,2,13,0.00
2013-8-21,103.5,75.1,55.4,69.6,47.7,32.7,42,38,32,22.63,22.63,10,2,13,0.00
2013-8-22,102.4,77.9,60.3,66.9,50.4,37.0,47,39,32,22.63,22.63,8,2,13,0.00
2013-8-23,95.5,72.0,55.2,62.7,47.5,34.2,56,43,34,22.63,22.63,10,2,15,0.00
2013-8-24,94.3,69.1,52.3,61.6,45.6,30.5,66,44,34,22.63,22.63,12,3,17,0.00
2013-8-25,84.2,66.5,55.9,58.0,51.4,47.5,78,60,40,22.63,22.63,10,3,18,0.00
2013-8-26,70.2,64.3,59.2,59.6,55.5,49.5,88,74,55,22.63,22.63,5,2,6,0.00
2013-8-27,96.1,71.0,58.1,64.8,54.8,49.2,92,60,36,22.63,22.63,8,2,13,0.00
2013-8-28,95.9,72.9,56.8,64.7,52.9,46.9,82,52,36,22.63,22.63,8,1,10,0.00
2013-8-29,79.9,68.9,61.9,67.9,58.8,47.4,93,72,45,30.30,22.63,8,2,10,0.00
2013-8-30,83.8,70.5,64.2,64.0,59.0,55.9,92,69,41,30.30,30.24,9,2,10,0.00
2013-8-31,86.7,71.0,62.1,63.8,57.8,52.8,94,67,38,30.27,29.93,8,2,14,0.00
2013-9-1,95.0,71.4,59.7,67.6,57.8,50.9,96,67,38,29.93,29.87,5,2,11,0.00
2013-9-2,88.9,68.3,55.2,61.5,52.8,48.6,91,61,39,29.93,29.90,10,1,15,0.00
2013-9-3,88.2,69.7,56.7,61.9,52.3,46.9,74,56,38,29.96,29.90,10,2,12,0.00
2013-9-4,89.4,69.9,56.8,62.7,51.8,47.0,80,55,39,29.99,29.93,13,2,17,0.00
2013-9-5,97.0,69.0,57.4,69.4,52.2,46.8,72,57,38,29.96,29.93,8,1,13,0.00
2013-9-6,92.1,68.7,57.6,65.8,51.2,45.4,74,55,40,29.96,29.90,8,1,11,0.00
2013-9-7,84.4,67.3,58.3,59.6,50.8,45.2,82,56,41,29.96,29.90,9,2,14,0.00
2013-9-8,96.3,69.4,57.0,70.8,53.2,42.0,89,60,39,29.90,29.81,9,2,13,0.00
2013-9-9,89.1,68.0,55.2,65.0,49.9,40.6,76,54,41,29.84,29.78,8,2,14,0.00
2013-9-10,88.3,66.5,51.8,63.0,49.4,37.9,87,56,39,29.90,29.81,7,2,13,0.00
2013-9-11,89.8,64.5,47.7,66.9,46.1,31.4,68,52,43,29.93,29.87,9,2,13,0.00
2013-9-12,95.0,66.6,48.4,71.6,46.8,29.2,53,49,46,29.93,29.87,10,2,13,0.00
2013-9-13,97.3,68.7,49.3,73.1,48.4,29.9,51,48,46,29.87,29.75,8,1,12,0.00
2013-9-14,102.9,71.3,52.5,76.4,49.7,33.4,51,47,33,29.78,29.72,6,1,19,0.00
2013-9-15,97.5,71.1,53.2,66.7,48.4,34.1,52,45,33,29.84,29.75,11,2,14,0.00
2013-9-16,100.0,70.6,52.3,65.8,47.0,34.8,53,44,33,29.87,29.81,10,2,13,0.00
2013-9-17,94.3,66.6,48.0,61.6,43.2,29.8,51,43,34,29.84,29.75,10,2,13,0.00
2013-9-18,89.8,61.2,41.9,58.5,39.5,25.1,67,46,35,29.75,29.69,13,2,14,0.00
2013-9-19,94.8,67.0,48.9,62.1,43.0,29.1,51,42,34,29.81,29.72,10,2,13,0.00
2013-9-20,91.8,63.7,44.8,59.4,41.4,27.6,68,45,34,29.84,29.78,11,2,13,0.00
2013-9-21,84.0,58.0,37.4,55.1,39.0,18.5,88,51,36,29.81,29.72,10,2,14,0.00
2013-9-22,78.6,56.2,42.3,54.3,40.2,28.4,89,58,40,29.78,29.66,10,3,12,0.00
2013-9-23,92.1,66.1,46.0,59.7,41.2,27.0,47,40,34,29.90,29.75,8,3,16,0.00
2013-9-24,89.6,62.8,43.3,58.3,39.0,25.0,48,42,35,29.93,29.81,12,2,16,0.00
2013-9-25,78.6,60.5,43.3,50.9,36.7,25.6,50,41,38,29.81,29.60,13,4,17,0.00
2013-9-26,68.2,48.2,38.5,46.0,33.4,22.3,88,58,42,29.78,29.60,11,3,13,0.00
2013-9-27,74.3,52.7,31.5,47.1,34.2,19.0,94,52,38,29.93,29.75,15,4,17,0.00
2013-9-28,84.6,58.8,39.9,54.7,35.7,21.8,48,42,36,29.99,29.90,8,3,13,0.00
2013-9-29,89.8,58.5,37.4,58.5,35.8,20.0,51,43,35,29.99,29.93,8,2,15,0.00
2013-9-30,92.3,60.1,39.4,59.9,37.1,21.3,50,43,34,29.96,29.84,9,2,13,0.00
2013-10-1,89.6,58.9,39.2,58.3,36.1,21.2,51,43,35,29.90,29.84,8,2,13,0.00
2013-10-2,82.8,59.0,43.0,53.1,37.7,24.6,76,46,36,29.87,29.81,10,2,17,0.00
2013-10-3,75.6,56.0,39.9,48.2,36.6,20.8,92,50,38,29.81,29.72,13,3,14,0.00
2013-10-4,70.7,57.2,48.0,44.5,33.4,26.0,42,41,39,29.99,29.78,26,6,26,0.00
2013-10-5,72.5,57.9,49.1,46.2,34.3,26.4,42,41,39,30.08,29.96,15,7,26,0.00
2013-10-6,87.6,61.9,47.8,57.4,37.2,25.9,42,40,36,30.02,29.96,13,3,15,0.00
2013-10-7,86.5,58.4,37.4,56.4,34.4,17.5,44,40,36,29.96,29.84,8,2,13,0.00
2013-10-8,78.1,54.3,39.4,50.4,34.1,18.8,83,48,38,29.84,29.69,10,3,15,0.00
2013-10-9,45.1,41.0,34.9,38.2,34.6,30.6,96,79,58,29.66,29.54,12,5,17,0.00
2013-10-10,66.6,43.6,33.8,42.8,34.3,29.2,97,74,42,29.84,29.60,7,2,13,0.00
2013-10-11,77.5,47.9,31.1,50.0,35.2,27.3,95,66,38,29.87,29.84,5,2,11,0.00
2013-10-12,80.1,51.2,33.4,51.5,36.9,28.3,92,62,37,29.87,29.81,6,1,11,0.00
2013-10-13,70.7,49.9,35.2,44.5,35.8,26.3,93,62,39,29.87,29.78,10,3,17,0.00
2013-10-14,56.7,46.9,42.4,33.8,26.4,23.0,46,44,42,29.93,29.87,6,2,10,0.00
2013-10-15,80.6,56.5,39.2,52.0,33.0,20.2,46,41,37,29.93,29.84,9,3,13,0.00
2013-10-16,81.3,55.3,34.7,52.6,31.9,15.6,45,41,37,29.96,29.93,11,3,15,0.00
2013-10-17,80.2,51.5,32.0,51.6,29.4,14.6,48,43,37,29.93,29.87,9,2,13,0.00
2013-10-18,82.2,56.9,35.4,53.4,33.5,17.2,47,41,37,29.96,29.87,13,3,14,0.00
2013-10-19,89.1,60.1,37.4,57.9,35.7,17.5,44,40,35,29.99,29.93,8,2,10,0.00
2013-10-20,86.5,55.6,37.4,56.4,32.1,17.5,46,41,36,29.93,29.84,8,2,13,0.00
2013-10-21,88.5,58.1,37.8,57.4,34.1,17.8,46,41,35,29.93,29.87,8,2,12,0.00
2013-10-22,86.4,59.5,45.5,56.3,35.3,23.8,42,40,36,29.96,29.87,8,2,13,0.00
2013-10-23,81.1,55.5,39.6,52.4,32.1,18.9,43,41,37,29.87,29.81,6,2,12,0.00
2013-10-24,84.7,54.6,37.4,54.9,32.8,17.5,62,44,36,29.93,29.81,6,1,11,0.00
2013-10-25,83.8,55.7,36.9,54.1,32.5,17.0,47,42,36,30.02,29.93,6,1,14,0.00
2013-10-26,80.6,56.1,40.5,52.0,32.6,19.7,43,41,37,30.02,29.96,9,1,13,0.00
2013-10-27,81.3,55.5,38.7,52.6,32.0,18.6,45,41,37,29.96,29.69,10,3,17,0.00
2013-10-28,48.6,43.0,38.7,43.3,36.4,25.1,95,79,45,29.72,29.60,12,7,21,0.00
2013-10-29,58.1,41.5,35.8,36.5,30.9,25.7,93,68,42,29.78,29.69,9,3,12,0.00
2013-10-30,70.3,46.5,32.5,44.2,30.0,18.0,95,55,39,29.87,29.78,8,3,13,0.00
2013-10-31,75.4,51.8,36.3,48.0,29.3,18.0,47,42,38,29.96,29.90,11,4,13,0.00
2013-11-1,73.8,58.0,44.6,46.6,34.2,22.9,42,41,38,30.02,29.93,10,4,14,0.00
2013-11-2,81.7,51.9,34.2,52.9,29.3,15.1,47,42,37,29.96,29.81,8,2,14,0.08
2013-11-3,72.7,48.3,30.7,46.3,29.4,15.7,77,50,39,29.78,29.69,10,2,16,0.00
2013-11-4,61.7,42.2,29.3,37.8,27.5,19.1,83,58,41,29.75,29.63,8,3,16,0.28
2013-11-5,64.6,47.9,39.9,39.7,26.0,19.2,43,42,40,29.99,29.75,15,7,22,0.00
2013-11-6,74.7,54.4,42.4,47.4,31.2,21.5,43,41,38,30.08,29.99,8,4,17,0.00
2013-11-7,83.8,55.5,35.6,54.1,32.1,15.9,44,41,36,30.05,29.96,8,2,12,0.00
2013-11-8,84.2,52.0,35.6,54.4,29.2,15.9,44,42,36,29.96,29.87,8,1,11,0.00
2013-11-9,81.1,50.8,31.8,52.4,28.4,12.9,45,42,37,29.99,29.90,10,2,11,0.00
2013-11-10,82.2,56.8,40.1,53.4,33.1,19.4,43,41,37,29.99,29.96,7,2,8,0.00
2013-11-11,82.8,59.6,41.5,53.1,35.7,20.7,43,41,36,30.05,29.96,9,4,12,0.00
2013-11-12,78.8,61.6,52.5,50.4,37.3,29.5,42,40,37,30.11,30.02,6,2,10,0.00
2013-11-13,86.7,60.8,45.3,56.6,36.3,23.6,42,40,36,30.05,29.93,8,2,10,0.00
2013-11-14,83.8,59.1,45.3,54.1,34.9,23.6,42,40,36,29.93,29.72,8,2,12,0.00
2013-11-15,67.1,50.1,39.2,42.0,31.2,23.1,72,49,40,29.72,29.57,8,2,13,0.00
2013-11-16,44.6,41.8,38.5,37.5,33.3,27.2,84,72,53,29.75,29.60,10,3,10,0.00
2013-11-17,70.0,47.1,32.9,44.2,32.9,23.8,88,61,39,29.90,29.75,8,2,10,0.00
2013-11-18,71.2,48.1,36.5,45.0,33.4,27.5,82,59,39,29.93,29.87,8,2,10,0.00
2013-11-19,69.3,46.3,39.7,43.9,34.6,29.7,84,66,40,29.87,29.78,6,2,11,0.00
2013-11-20,62.6,46.2,36.7,42.2,36.8,29.7,88,72,41,29.78,29.72,9,2,13,0.00
2013-11-21,51.6,44.3,32.9,44.4,36.5,25.5,92,75,49,29.72,29.69,6,2,11,0.00
2013-11-22,40.5,35.9,30.6,35.9,29.3,23.6,89,77,69,29.75,29.66,4,1,8,0.00
2013-11-23,61.7,38.4,29.5,37.8,27.8,22.2,94,69,41,29.87,29.72,5,2,12,0.00
2013-11-24,63.1,39.5,27.9,39.1,27.0,19.7,88,64,41,29.96,29.84,7,2,12,0.00
2013-11-25,64.6,48.3,36.9,39.7,27.2,19.4,52,44,40,30.02,29.93,14,6,19,0.00
2013-11-26,62.2,50.1,43.0,38.3,27.7,22.0,43,42,40,30.05,29.93,11,5,16,0.00
2013-11-27,67.8,46.9,34.3,42.6,25.2,15.2,45,42,40,29.96,29.78,8,3,12,0.00
2013-11-28,63.0,43.6,28.8,38.9,23.0,13.3,60,44,40,29.90,29.78,11,3,13,0.00
2013-11-29,59.2,44.1,35.1,36.1,25.3,16.2,69,48,40,29.99,29.90,8,2,11,0.00
2013-11-30,72.1,49.2,35.1,45.8,28.7,19.8,67,46,39,30.02,29.96,8,2,10,0.00
2013-12-1,70.2,50.5,37.6,44.1,28.1,17.7,44,42,39,30.05,29.99,9,3,13,0.00
2013-12-2,76.6,52.3,38.8,49.2,29.5,18.6,44,42,38,30.02,29.81,9,1,13,0.00
2013-12-3,66.7,47.4,34.7,41.7,30.6,15.6,94,55,40,29.81,29.57,13,4,18,0.00
2013-12-4,56.1,37.8,24.4,40.8,25.5,9.6,95,64,40,29.72,29.54,17,4,22,0.00
2013-12-5,50.2,32.6,20.7,27.4,19.7,13.7,77,61,41,29.81,29.69,7,1,10,0.00
2013-12-6,47.3,30.4,18.3,25.4,18.0,9.2,77,61,42,29.87,29.81,6,2,11,0.00
2013-12-7,37.4,32.4,28.6,33.5,23.9,18.3,90,71,46,29.81,29.66,24,6,27,0.00
2013-12-8,53.1,32.3,19.6,30.0,19.2,12.4,74,60,41,29.87,29.78,8,2,13,0.00
2013-12-9,50.5,31.0,19.8,27.7,12.9,4.6,74,47,41,30.02,29.87,11,5,22,0.00
2013-12-10,57.7,40.3,31.1,33.0,19.7,12.2,45,43,39,29.99,29.90,10,3,17,0.00
2013-12-11,64.9,47.2,36.9,40.1,25.4,17.0,44,42,40,29.99,29.90,7,2,14,0.00
2013-12-12,62.8,41.7,25.7,38.8,20.9,7.8,46,43,40,29.99,29.93,6,2,12,0.00
2013-12-13,71.1,45.3,24.6,44.9,23.9,7.3,47,43,39,30.02,29.90,13,3,21,0.00
2013-12-14,56.3,46.3,35.6,33.5,24.7,15.9,44,42,40,30.11,30.02,16,7,23,0.00
2013-12-15,67.5,56.0,46.2,42.3,32.6,24.4,42,41,40,30.11,30.02,13,6,25,0.00
2013-12-16,79.5,60.9,51.8,51.0,36.8,28.9,42,41,37,30.08,30.02,14,4,16,0.00
2013-12-17,81.1,59.9,44.2,52.4,35.5,23.2,43,40,37,30.08,29.96,8,2,11,0.00
2013-12-18,75.4,50.8,32.5,48.0,28.3,13.6,45,42,38,29.96,29.69,6,2,11,0.00
2013-12-19,40.5,35.4,30.2,30.3,27.2,21.0,91,72,57,29.66,29.52,8,3,15,0.00
2013-12-20,59.2,36.4,24.8,34.3,23.8,16.8,94,63,39,29.72,29.54,8,1,12,0.00
2013-12-21,60.8,38.9,23.2,37.0,25.3,17.5,87,61,40,29.87,29.69,6,2,10,0.00
2013-12-22,70.0,47.5,32.2,44.2,25.7,13.2,45,42,39,30.08,29.87,8,3,13,0.00
2013-12-23,64.9,49.9,41.7,40.1,27.6,20.9,43,42,40,30.14,30.05,13,5,20,0.00
2013-12-24,71.6,53.6,42.6,45.4,30.6,21.7,43,41,39,30.08,29.99,13,4,15,0.00
2013-12-25,70.5,50.4,40.6,44.4,28.1,19.9,43,42,39,30.08,30.02,10,4,15,0.00
2013-12-26,61.0,50.8,42.1,37.4,28.3,21.2,43,42,40,30.05,29.96,17,7,26,0.00
2013-12-27,73.9,50.2,35.1,46.8,27.9,15.9,45,42,38,30.05,29.96,12,3,13,0.00
2013-12-28,72.9,47.6,32.7,46.5,25.8,13.7,45,42,39,29.96,29.81,10,2,17,0.00
2013-12-29,63.9,46.7,36.1,39.7,25.0,16.4,44,42,40,29.99,29.84,17,5,24,0.00
2013-12-30,74.8,47.4,29.8,47.6,25.7,11.1,45,43,38,30.08,29.96,12,2,12,0.00
2013-12-31,76.5,45.0,28.2,49.0,23.8,10.1,46,43,38,30.05,29.96,9,2,11,0.00
2014-1-1,75.2,52.9,31.1,47.9,30.0,12.2,45,41,38,30.02,29.93,9,2,14,0.00
2014-1-2,77.9,52.3,34.2,50.3,29.6,15.1,45,42,38,29.99,29.90,8,2,10,0.00